Location: Prairie State College
(41.5244°N, 87.6382°W)
Time: 18:45:14
(UTC-06:00)

ISS - All Passes

Search period start: 21 December 2014 00:00
Search period end: 31 December 2014 00:00
Orbit: 404 x 414 km, 51.6° (Epoch: 21 December)

Date Brightness Start Highest point End Pass type
(mag) Time Alt. Az. Time Alt. Az. Time Alt. Az.
21 Dec - 12:02:29 10° S 12:04:32 16° SE 12:06:35 10° E daylight
21 Dec - 13:37:31 10° WSW 13:40:47 62° NNW 13:44:04 10° NE daylight
21 Dec - 15:15:32 10° WNW 15:17:52 18° NNW 15:20:12 10° NNE daylight
21 Dec - 16:53:26 10° NNW 16:55:25 15° N 16:57:24 10° NE visible
21 Dec - 18:29:41 10° NW 18:32:44 34° NNE 18:35:46 10° E visible
21 Dec - 20:06:20 10° WNW 20:09:16 31° SW 20:12:11 10° SSE night (unlit)
22 Dec - 12:46:42 10° SW 12:50:00 74° SE 12:53:18 10° ENE daylight
22 Dec - 14:24:11 10° WNW 14:26:52 22° NNW 14:29:32 10° NE daylight
22 Dec - 16:02:29 10° NNW 16:04:20 14° N 16:06:12 10° NE daylight
22 Dec - 17:39:01 10° NW 17:41:47 24° NNE 17:44:32 10° ENE visible
22 Dec - 19:15:20 10° WNW 19:18:34 59° SW 19:21:47 10° SE visible
23 Dec - 11:56:08 10° SSW 11:59:14 39° SE 12:02:20 10° ENE daylight
23 Dec - 13:32:53 10° W 13:35:51 30° NNW 13:38:50 10° NE daylight
23 Dec - 15:11:17 10° NW 15:13:13 15° N 15:15:09 10° NNE daylight
23 Dec - 16:48:18 10° NNW 16:50:44 19° NNE 16:53:10 10° ENE daylight
23 Dec - 18:24:28 10° NW 18:27:45 75° NNE 18:31:01 10° ESE visible
23 Dec - 20:02:28 10° WSW 20:03:54 12° SW 20:05:19 10° SSW visible
24 Dec - 11:05:55 10° S 11:08:30 21° SE 11:11:05 10° E daylight
24 Dec - 12:41:40 10° WSW 12:44:52 46° NNW 12:48:05 10° NE daylight
24 Dec - 14:19:53 10° NW 14:22:04 16° N 14:24:14 10° NNE daylight
24 Dec - 15:57:29 10° NNW 15:59:37 16° N 16:01:44 10° NE daylight
24 Dec - 17:33:39 10° NW 17:36:49 43° NNE 17:39:58 10° ESE visible
24 Dec - 19:10:35 10° W 19:13:13 22° SW 19:15:50 10° S visible
25 Dec - 10:16:34 10° SSE 10:17:48 12° SE 10:19:01 10° ESE daylight
25 Dec - 11:50:37 10° WSW 11:53:55 81° NW 11:57:14 10° NE daylight
25 Dec - 13:28:24 10° WNW 13:30:54 20° NNW 13:33:24 10° NNE daylight
25 Dec - 15:06:30 10° NNW 15:08:25 14° N 15:10:19 10° NE daylight
25 Dec - 16:42:51 10° NW 16:45:47 29° NNE 16:48:42 10° E daylight
25 Dec - 18:19:19 10° WNW 18:22:26 41° SW 18:25:32 10° SSE visible
26 Dec - 10:59:46 10° SW 11:03:00 54° SE 11:06:14 10° ENE daylight
26 Dec - 12:36:55 10° W 12:39:44 25° NNW 12:42:34 10° NE daylight
26 Dec - 14:15:17 10° NW 14:17:09 14° N 14:19:02 10° NNE daylight
26 Dec - 15:52:02 10° NW 15:54:38 21° NNE 15:57:15 10° ENE daylight
26 Dec - 17:28:14 10° WNW 17:31:32 80° SW 17:34:47 10° SE visible
27 Dec - 10:09:12 10° SSW 10:12:06 29° SE 10:15:01 10° ENE daylight
27 Dec - 11:45:30 10° W 11:48:36 37° NNW 11:51:42 10° NE daylight
27 Dec - 13:23:50 10° NW 13:25:52 15° N 13:27:54 10° NNE daylight
27 Dec - 15:01:07 10° NNW 15:03:24 17° NNE 15:05:41 10° ENE daylight
27 Dec - 16:37:16 10° NW 16:40:31 57° NNE 16:43:44 10° ESE daylight
27 Dec - 18:14:36 10° W 18:16:46 17° SW 18:18:56 10° S visible
28 Dec - 09:19:09 10° S 09:21:15 16° SE 09:23:21 10° E daylight
28 Dec - 10:54:13 10° WSW 10:57:29 60° NNW 11:00:46 10° NE daylight
28 Dec - 12:32:14 10° WNW 12:34:34 18° NNW 12:36:54 10° NNE daylight
28 Dec - 14:10:05 10° NNW 14:12:06 15° N 14:14:06 10° NE daylight
28 Dec - 15:46:19 10° NW 15:49:23 35° NNE 15:52:26 10° E daylight
28 Dec - 17:22:58 10° WNW 17:25:54 30° SW 17:28:48 10° SSE visible
29 Dec - 10:03:06 10° SW 10:06:24 75° SE 10:09:42 10° ENE daylight
29 Dec - 11:40:35 10° WNW 11:43:15 22° NNW 11:45:55 10° NE daylight
29 Dec - 13:18:51 10° NNW 13:20:43 14° N 13:22:35 10° NE daylight
29 Dec - 14:55:22 10° NW 14:58:09 24° NNE 15:00:55 10° ENE daylight
29 Dec - 16:31:40 10° WNW 16:34:54 58° SW 16:38:07 10° SE daylight
30 Dec - 09:12:15 10° SSW 09:15:21 39° SE 09:18:28 10° ENE daylight
30 Dec - 10:48:59 10° W 10:51:58 30° NNW 10:54:56 10° NE daylight
30 Dec - 12:27:21 10° NW 12:29:18 15° N 12:31:14 10° NNE daylight
30 Dec - 14:04:22 10° NNW 14:06:49 19° NNE 14:09:15 10° ENE daylight
30 Dec - 15:40:30 10° NW 15:43:48 76° NE 15:47:04 10° ESE daylight
30 Dec - 17:18:30 10° WSW 17:19:55 12° SW 17:21:20 10° SSW visible
